Location: Cabri�res
(43.7840°N, 5.4986°E)
Time: 19:59:56
(UTC+00:00)

ARGOS Delta rocket - Pass Details

Date: 09 April 2020
Orbit: 634 x 839 km, 96.4° (Epoch: 01 June)

Event Time Altitude Azimuth Distance (km) Brightness Sun altitude
Rises 18:43:33 0° 165° (SSE) 3,284 7.0 -5.8°
Reaches altitude 10° 18:45:50 10° 164° (SSE) 2,382 6.2 -6.2°
Maximum altitude 18:51:10 83° 78° (ENE) 841 4.2 -7.1°
Drops below altitude 10° 18:56:41 10° 351° (N) 2,463 7.0 -8.1°
Sets 18:59:05 0° 351° (N) 3,403 7.8 -8.5°
